This demonstration page uses our WeatherBlox Daily Observations layout. Learn more.

Left ArrowRight Arrow

36.17497, -115.13722

Hourly Observations for January 12, 2017

Temp ( °F °C ) Dew Point ( °F °C ) Humidity (%) Winds ( mph kmh ) Pressure ( in mb ) Visibility ( mi km ) Precip ( " mm )
12:53 am 00:53 Clear 53 11.7 34 1.1 48 48 SSW 20 31 29.85 1011 10 16.0934 0 0
1:53 am 01:53 Clear 53 11.7 36 2.2 52 52 SSW 17 28 29.87 1012 10 16.0934 0 0
2:53 am 02:53 Clear 53 11.7 35 1.7 51 51 SSW 21 33 29.86 1011 10 16.0934 0 0
3:53 am 03:53 Clear 53 11.7 35 1.7 51 51 S 16 26 29.86 1011 10 16.0934 0 0
4:53 am 04:53 Clear 52 11.1 34 1.1 50 50 S 13 20 29.87 1011 10 16.0934 0 0
5:53 am 05:53 Clear 52 11.1 34 1.1 50 50 S 15 24 29.87 1012 10 16.0934 0 0
6:53 am 06:53 Sunny 52 11.1 35 1.7 53 53 S 15 24 29.89 1012 10 16.0934 0 0
7:53 am 07:53 Sunny 52 11.1 35 1.7 53 53 S 12 19 29.92 1013 10 16.0934 0 0
8:53 am 08:53 Mostly Sunny 54 12.2 34 1.1 47 47 SSW 12 19 29.95 1014 10 16.0934 0 0
9:53 am 09:53 Mostly Cloudy 55 12.8 33 0.6 44 44 S 13 20 29.96 1015 10 16.0934 0 0
10:53 am 10:53 Cloudy 55 12.8 38 3.3 53 53 SE 12 19 29.96 1014 10 16.0934 0 0
11:53 am 11:53 Cloudy 57 13.9 33 0.6 41 41 S 10 17 29.92 1013 10 16.0934 0 0
12:53 pm 12:53 Cloudy 56 13.3 37 2.8 49 49 SSE 8 13 29.92 1013 10 16.0934 0 0
1:53 pm 13:53 Cloudy with Haze 53 11.7 41 5 64 64 S 9 15 29.93 1013 6 9.65604 0.01 0.254
2:53 pm 14:53 Cloudy 53 11.7 42 5.6 66 66 ESE 5 7 29.93 1014 10 16.0934 0.02 0.508
3:53 pm 15:53 Cloudy 51 10.6 45 7.2 80 80 NNW 6 9 29.95 1014 7 11.26538 0.02 0.508
4:53 pm 16:53 Cloudy 50 10 46 7.8 86 86 NNW 5 7 29.96 1014 10 16.0934 0.01 0.254
5:53 pm 17:53 Cloudy 49 9.4 44 6.7 83 83 NW 6 9 29.96 1015 10 16.0934 0.02 0.508
6:53 pm 18:53 Cloudy 49 9.4 45 7.2 86 86 NNW 3 6 29.97 1015 10 16.0934 0 0
7:53 pm 19:53 Cloudy 48 9 46 8 94 94 NW 3 6 29.97 1015 10 16.0934 0 0
9:53 pm 21:53 Cloudy 49 9.4 45 7.2 86 86 SSE 5 7 29.99 1016 10 16.0934 0 0
10:53 pm 22:53 Cloudy 49 9.4 45 7.2 86 86 ESE 5 7 30 1016 10 16.0934 0 0
11:53 pm 23:53 Cloudy 49 9.4 45 7.2 86 86 ESE 6 9 30.01 1016 10 16.0934 0 0

Powered by AerisWeather